Weather History for Hanford, WA

Change the Weather History Date:

Tuesday, March 5, 2013

  Actual Average Record
Temperature  
Mean Temperature 38 °F -  
Max Temperature 45 °F 52 °F 63 °F (2005)
Min Temperature 32 °F 31 °F 24 °F (1998)
Degree Days  
Heating Degree Days 26    
Moisture  
Dew Point 26 °F    
Average Humidity 61    
Maximum Humidity 96    
Minimum Humidity 47    
Precipitation  
Precipitation 0.01 in - - ()
Sea Level Pressure  
Sea Level Pressure 29.94 in    
Wind  
Wind Speed 10 mph (NW)    
Max Wind Speed 15 mph    
Max Gust Speed -    
Visibility 15 miles    
Events Rain    
Averages and records for this station are not official NWS values.
T = Trace of Precipitation, MM = Missing Value Source: NWS Daily Summary

Daily Weather History Graph

Daily Weather History Graph

Search for Another Location

Airport:

Trip Planner

Search our weather history database for the weather conditions in past years. The results will help you decide how hot, cold, wet, or windy it might be!

Date:

Astronomy

Mar. 05, 2013 Rise Set
Actual Time 6:29 AM PST 5:50 PM PST
Civil Twilight 5:59 AM PST 6:20 PM PST
Nautical Twilight 5:24 AM PST 6:55 PM PST
Astronomical Twilight 4:49 AM PST 7:31 PM PST
Moon 2:02 AM PST (3/5) 11:18 AM PST (3/5)
Length of Visible Light 12h 21m
Length of Day
11h 20m
Last Quarter, 39% of the Moon is Illuminated
Mar 5
Last Quarter
Mar 11
New
Mar 19
First Quarter
Mar 27
Full
Apr 2
Last Quarter

Hourly Weather History & Observations

Time (PST) Temp. Windchill Dew Point Humidity Pressure Visibility Wind Dir Wind Speed Gust Speed Precip Events Conditions
12:50 AM 34.9 °F 28.3 °F 20.8 °F 57% 30.02 in 15.0 mi West 8.1 mph - N/A   Mostly Cloudy
1:50 AM 36.5 °F 28.7 °F 21.0 °F 54% 30.01 in 15.0 mi WNW 11.5 mph - N/A   Mostly Cloudy
2:50 AM 32.4 °F 26.0 °F 21.0 °F 63% 30.01 in 15.0 mi NNW 6.9 mph - N/A   Mostly Cloudy
3:50 AM 33.6 °F 25.0 °F 21.9 °F 62% 30.00 in 15.0 mi WNW 11.5 mph - N/A   Mostly Cloudy
4:50 AM 34.5 °F 25.3 °F 21.9 °F 60% 30.00 in 15.0 mi NW 13.8 mph - N/A   Overcast
5:50 AM 35.4 °F 26.8 °F 21.9 °F 58% 30.00 in 15.0 mi WNW 12.7 mph - N/A   Overcast
6:50 AM 36.5 °F 28.2 °F 21.9 °F 56% 29.99 in 15.0 mi WNW 12.7 mph - N/A   Overcast
7:50 AM 37.8 °F 29.0 °F 22.5 °F 54% 29.99 in 15.0 mi NW 15.0 mph - N/A   Overcast
8:50 AM 39.7 °F 31.9 °F 22.6 °F 50% 29.97 in 15.0 mi NW 13.8 mph - N/A   Overcast
9:50 AM 41.2 °F 33.4 °F 23.0 °F 48% 29.94 in 15.0 mi NW 15.0 mph - N/A   Overcast
10:50 AM 41.5 °F 37.1 °F 23.7 °F 49% 29.94 in 15.0 mi NNE 6.9 mph - N/A   Overcast
11:50 AM 41.5 °F 38.6 °F 24.1 °F 50% 29.94 in 15.0 mi North 4.6 mph - 0.00 in   Small Hail Showers
12:50 PM 43.2 °F 37.9 °F 24.1 °F 47% 29.93 in 15.0 mi NNW 9.2 mph - N/A   Overcast
1:50 PM 44.6 °F 39.2 °F 27.7 °F 52% 29.91 in 15.0 mi North 10.4 mph - 0.00 in   Overcast
2:50 PM 45.7 °F 41.5 °F 29.8 °F 54% 29.90 in 15.0 mi North 8.1 mph - N/A   Overcast
3:50 PM 44.6 °F 41.4 °F 30.2 °F 57% 29.91 in 15.0 mi NW 5.8 mph - N/A   Overcast
4:50 PM 43.0 °F 39.5 °F 32.9 °F 68% 29.90 in 15.0 mi North 5.8 mph - N/A   Overcast
5:50 PM 41.0 °F 38.0 °F 34.0 °F 76% 29.90 in 15.0 mi North 4.6 mph - N/A   Overcast
6:50 PM 39.6 °F 34.0 °F 33.8 °F 80% 29.90 in 15.0 mi WNW 8.1 mph - N/A   Overcast
10:50 PM 36.9 °F 29.1 °F 35.8 °F 96% 29.84 in 15.0 mi WNW 11.5 mph - 0.01 in Rain Light Rain
11:50 PM 36.9 °F 29.1 °F 35.6 °F 95% 29.83 in 15.0 mi WNW 11.5 mph - N/A Rain Light Rain